The Dalles, WA

12:44 PM PST on December 11, 2019 (GMT -0800)
Columbia Gorge Regional-The Dalles

Weather History for KDLS - November, 2019

Change the Weather History Date:

Sunday, November 17, 2019

  Actual Average Record
Temperature  
Mean Temperature 52 °F -  
Max Temperature 62 °F 50 °F 65 °F (1976)
Min Temperature 41 °F 37 °F 15 °F (2014)
Degree Days  
Heating Degree Days 14    
Growing Degree Days 2 (Base 50)    
Moisture  
Dew Point 44 °F    
Average Humidity 78    
Maximum Humidity 89    
Minimum Humidity 53    
Precipitation  
Precipitation 0.00 in - - ()
Sea Level Pressure  
Sea Level Pressure 30.16 in    
Wind  
Wind Speed 4 mph (West)    
Max Wind Speed 23 mph    
Max Gust Speed 31 mph    
Visibility 10 miles    
Events      
Averages and records for this station are not official NWS values.
T = Trace of Precipitation, MM = Missing Value Source: NWS Daily Summary

Daily Weather History Graph

Daily Weather History Graph

Search for Another Location

Airport or City:

Astronomy

Nov. 17, 2019 Rise Set
Actual Time 7:06 AM PST 4:32 PM PST
Civil Twilight 6:34 AM PST 5:04 PM PST
Nautical Twilight 5:58 AM PST 5:40 PM PST
Astronomical Twilight 5:23 AM PST 6:15 PM PST
Moon 9:11 PM PST (11/17) 12:00 PM PST (11/17)
Length of Visible Light 10h 30m
Length of Day
9h 25m
Waning Gibbous, 72% of the Moon is Illuminated
Nov 17
Waning Gibbous
Nov 19
Last Quarter
Nov 26
New
Dec 3
First Quarter
Dec 11
Full

Hourly Weather History & Observations

Time (PST) Temp. Windchill Dew Point Humidity Pressure Visibility Wind Dir Wind Speed Gust Speed Precip Events Conditions
12:53 AM 42.1 °F - 37.9 °F 85% 30.25 in 10.0 mi Calm Calm - N/A   Overcast
1:53 AM 42.1 °F - 37.9 °F 85% 30.23 in 10.0 mi Calm Calm - N/A   Scattered Clouds
3:53 AM 42.1 °F 40.2 °F 39.0 °F 89% 30.19 in 10.0 mi NNE 3.5 mph - N/A   Clear
4:53 AM 42.1 °F - 37.9 °F 85% 30.19 in 10.0 mi Calm Calm - N/A   Clear
5:53 AM 43.0 °F - 39.0 °F 86% 30.17 in 10.0 mi Calm Calm - N/A   Partly Cloudy
6:53 AM 41.0 °F 39.0 °F 37.9 °F 89% 30.17 in 10.0 mi West 3.5 mph - N/A   Mostly Cloudy
7:53 AM 44.1 °F - 39.9 °F 85% 30.17 in 10.0 mi Calm Calm - N/A   Partly Cloudy
8:53 AM 46.0 °F - 41.0 °F 83% 30.18 in 10.0 mi Calm Calm - N/A   Partly Cloudy
9:53 AM 48.0 °F - 42.1 °F 80% 30.17 in 10.0 mi Calm Calm - N/A   Scattered Clouds
10:53 AM 52.0 °F - 43.0 °F 71% 30.15 in 10.0 mi North 3.5 mph - N/A   Scattered Clouds
11:53 AM 52.0 °F - 43.0 °F 71% 30.14 in 10.0 mi South 4.6 mph - N/A   Overcast
12:53 PM 62.1 °F - 45.0 °F 53% 30.12 in 10.0 mi WNW 16.1 mph 20.7 mph N/A   Overcast
1:53 PM 60.1 °F - 46.9 °F 62% 30.12 in 10.0 mi NW 17.3 mph 24.2 mph N/A   Overcast
2:53 PM 59.0 °F - 48.0 °F 67% 30.12 in 10.0 mi NW 23.0 mph 31.1 mph N/A   Scattered Clouds
3:53 PM 57.9 °F - 48.0 °F 70% 30.12 in 10.0 mi NW 19.6 mph 28.8 mph N/A   Clear
4:53 PM 55.9 °F - 48.0 °F 75% 30.14 in 10.0 mi Calm Calm - N/A   Clear
5:53 PM 55.9 °F - 48.0 °F 75% 30.15 in 10.0 mi WSW 5.8 mph - N/A   Mostly Cloudy
6:53 PM 53.1 °F - 46.9 °F 80% 30.15 in 10.0 mi SSE 5.8 mph - N/A   Mostly Cloudy
7:53 PM 54.0 °F - 48.0 °F 80% 30.15 in 10.0 mi WNW 4.6 mph - N/A   Mostly Cloudy
8:53 PM 52.0 °F - 46.0 °F 80% 30.16 in 10.0 mi SSW 6.9 mph - N/A   Partly Cloudy
9:53 PM 51.1 °F - 46.0 °F 83% 30.16 in 10.0 mi Variable 3.5 mph - N/A   Clear
10:53 PM 53.1 °F - 48.0 °F 83% 30.16 in 10.0 mi WSW 6.9 mph - N/A   Clear
11:53 PM 51.1 °F - 46.9 °F 86% 30.14 in 10.0 mi SW 5.8 mph - N/A   Clear